FDX29 ROAH-RJBB

Flight info

Callsign FDX29
Flight time 1h 28m
Altitude 35000
Route AMAMI Y53 NIXOV
Aircraft B77L/H-SDE1E2E3FGHIJ2J3J4J5M1RWXY/LB1D1

Departure

Time 2026-04-12 01:12
Airport Naha International Airport (ROAH)

Arrival

Time 2026-04-12 02:40
Airport Kansai International Airport (RJBB)
Time Latitude Longitude Altitude Speed Heading
2026-04-12 00:49 26.21621 127.65124 32 ft 0 kts 158°
2026-04-12 01:06 26.21620 127.65124 32 ft 1 kts 158°
2026-04-12 01:06 26.21592 127.65103 32 ft 7 kts 243°
2026-04-12 01:06 26.21597 127.65052 32 ft 7 kts 290°
2026-04-12 01:06 26.21613 127.65002 32 ft 7 kts 290°
2026-04-12 01:07 26.21617 127.64949 32 ft 7 kts 261°
2026-04-12 01:07 26.21590 127.64907 32 ft 7 kts 226°
2026-04-12 01:07 26.21554 127.64869 32 ft 8 kts 223°
2026-04-12 01:08 26.21465 127.64776 32 ft 10 kts 223°
2026-04-12 01:08 26.21401 127.64742 32 ft 11 kts 187°
2026-04-12 01:08 26.21318 127.64740 32 ft 13 kts 180°
2026-04-12 01:08 26.21226 127.64743 32 ft 14 kts 177°
2026-04-12 01:09 26.21126 127.64749 32 ft 15 kts 178°
2026-04-12 01:09 26.21022 127.64749 32 ft 15 kts 192°
2026-04-12 01:09 26.20932 127.64729 32 ft 10 kts 193°
2026-04-12 01:09 26.20900 127.64666 32 ft 10 kts 270°
2026-04-12 01:10 26.20900 127.64650 32 ft 0 kts 270°
2026-04-12 01:10 26.20900 127.64640 32 ft 3 kts 270°
2026-04-12 01:11 26.20900 127.64596 32 ft 9 kts 270°
2026-04-12 01:11 26.20871 127.64529 32 ft 11 kts 198°
2026-04-12 01:11 26.20787 127.64529 33 ft 20 kts 178°
2026-04-12 01:11 26.20425 127.64547 33 ft 92 kts 178°
2026-04-12 01:12 26.19535 127.64591 35 ft 160 kts 178°
2026-04-12 01:12 26.18397 127.64642 678 ft 163 kts 177°
2026-04-12 01:12 26.17265 127.64717 1485 ft 163 kts 178°
2026-04-12 01:12 26.16132 127.64790 2124 ft 168 kts 179°
2026-04-12 01:13 26.14882 127.64844 2411 ft 188 kts 180°
2026-04-12 01:13 26.13485 127.64906 2573 ft 216 kts 179°
2026-04-12 01:13 26.11932 127.64981 2981 ft 236 kts 178°
2026-04-12 01:13 26.10237 127.65054 3676 ft 249 kts 180°
2026-04-12 01:14 26.08482 127.65130 4479 ft 255 kts 180°
2026-04-12 01:14 26.06686 127.65205 5225 ft 261 kts 179°
2026-04-12 01:14 26.04851 127.65297 5918 ft 266 kts 176°
2026-04-12 01:14 26.03058 127.65877 6605 ft 273 kts 150°
2026-04-12 01:15 26.01682 127.67377 7277 ft 286 kts 124°
2026-04-12 01:15 26.00978 127.69468 7959 ft 295 kts 100°
2026-04-12 01:15 26.00967 127.71786 8539 ft 305 kts 87°
2026-04-12 01:15 26.01333 127.74098 9153 ft 311 kts 70°
2026-04-12 01:16 26.02493 127.76125 9811 ft 314 kts 50°
2026-04-12 01:16 26.03932 127.77960 10458 ft 318 kts 49°
2026-04-12 01:16 26.05401 127.79915 10648 ft 342 kts 50°
2026-04-12 01:16 26.06953 127.82042 10832 ft 366 kts 50°
2026-04-12 01:17 26.08605 127.84319 11065 ft 388 kts 50°
2026-04-12 01:17 26.10325 127.86690 11581 ft 400 kts 50°
2026-04-12 01:17 26.12095 127.89125 12258 ft 409 kts 49°
2026-04-12 01:17 26.13895 127.91597 13037 ft 414 kts 48°
2026-04-12 01:18 26.15725 127.94107 13801 ft 420 kts 47°
2026-04-12 01:18 26.17721 127.96462 14349 ft 418 kts 33°
2026-04-12 01:18 26.20163 127.98211 14780 ft 421 kts 26°
2026-04-12 01:18 26.22718 127.99857 15374 ft 426 kts 25°
2026-04-12 01:19 26.25259 128.01493 16104 ft 429 kts 25°
2026-04-12 01:19 26.27847 128.03182 16797 ft 433 kts 26°
2026-04-12 01:19 26.30455 128.04909 17413 ft 439 kts 26°
2026-04-12 01:19 26.33090 128.06674 18040 ft 444 kts 26°
2026-04-12 01:20 26.35750 128.08469 18607 ft 449 kts 26°
2026-04-12 01:20 26.38430 128.10286 19148 ft 453 kts 26°
2026-04-12 01:20 26.41138 128.12124 19705 ft 457 kts 26°
2026-04-12 01:20 26.43884 128.13987 19991 ft 468 kts 26°
2026-04-12 01:21 26.46701 128.15897 20237 ft 479 kts 26°
2026-04-12 01:21 26.49576 128.17849 20576 ft 486 kts 26°
2026-04-12 01:21 26.52487 128.19829 21032 ft 490 kts 26°
2026-04-12 01:21 26.55366 128.21790 21556 ft 492 kts 26°
2026-04-12 01:22 26.58294 128.23785 22039 ft 495 kts 26°
2026-04-12 01:22 26.61250 128.25798 22475 ft 499 kts 26°
2026-04-12 01:22 26.64221 128.27822 22896 ft 503 kts 26°
2026-04-12 01:22 26.67217 128.29873 23312 ft 507 kts 27°
2026-04-12 01:23 26.70017 128.32331 23642 ft 520 kts 42°
2026-04-12 01:23 26.72333 128.35473 23935 ft 527 kts 49°
2026-04-12 01:23 26.74536 128.38769 24258 ft 531 kts 50°
2026-04-12 01:23 26.76747 128.42087 24594 ft 533 kts 49°
2026-04-12 01:24 26.78993 128.45386 24949 ft 534 kts 49°
2026-04-12 01:24 26.81287 128.48671 25288 ft 536 kts 48°
2026-04-12 01:24 26.83611 128.51947 25612 ft 539 kts 47°
2026-04-12 01:24 26.85956 128.55235 25932 ft 541 kts 47°
2026-04-12 01:25 26.88308 128.58537 26232 ft 544 kts 47°
2026-04-12 01:25 26.90674 128.61875 26522 ft 547 kts 48°
2026-04-12 01:25 26.93135 128.65110 26742 ft 544 kts 40°
2026-04-12 01:25 26.96116 128.67638 26916 ft 532 kts 24°
2026-04-12 01:26 26.99398 128.69555 27094 ft 533 kts 21°
2026-04-12 01:26 27.02718 128.71438 27307 ft 536 kts 21°
2026-04-12 01:26 27.05999 128.73318 27585 ft 538 kts 22°
2026-04-12 01:26 27.09322 128.75261 27846 ft 540 kts 22°
2026-04-12 01:27 27.12667 128.77253 27882 ft 546 kts 22°
2026-04-12 01:27 27.16032 128.79284 27915 ft 551 kts 23°
2026-04-12 01:27 27.19419 128.81345 27997 ft 555 kts 23°
2026-04-12 01:27 27.22819 128.83424 28133 ft 556 kts 23°
2026-04-12 01:28 27.26216 128.85505 28304 ft 557 kts 23°
2026-04-12 01:28 27.29629 128.87593 28445 ft 558 kts 23°
2026-04-12 01:28 27.33047 128.89681 28579 ft 559 kts 23°
2026-04-12 01:28 27.36468 128.91769 28691 ft 560 kts 23°
2026-04-12 01:29 27.39899 128.93864 28776 ft 562 kts 23°
2026-04-12 01:29 27.43336 128.95963 28879 ft 563 kts 23°
2026-04-12 01:29 27.46784 128.98070 28986 ft 564 kts 23°
2026-04-12 01:29 27.50182 129.00149 29094 ft 564 kts 23°
2026-04-12 01:30 27.53638 129.02265 29235 ft 564 kts 23°
2026-04-12 01:30 27.57084 129.04377 29389 ft 564 kts 23°
2026-04-12 01:30 27.60518 129.06483 29560 ft 563 kts 23°
2026-04-12 01:30 27.63971 129.08603 29729 ft 563 kts 23°
2026-04-12 01:31 27.67412 129.10716 29880 ft 563 kts 23°
2026-04-12 01:31 27.70853 129.12830 30056 ft 563 kts 23°
2026-04-12 01:31 27.74293 129.14945 30212 ft 563 kts 23°
2026-04-12 01:31 27.77729 129.17059 30369 ft 563 kts 23°
2026-04-12 01:32 27.81166 129.19176 30528 ft 563 kts 23°
2026-04-12 01:32 27.84602 129.21293 30687 ft 562 kts 23°
2026-04-12 01:32 27.88038 129.23412 30859 ft 562 kts 23°
2026-04-12 01:32 27.91469 129.25530 31039 ft 561 kts 23°
2026-04-12 01:33 27.94896 129.27647 31225 ft 561 kts 22°
2026-04-12 01:33 27.98323 129.29765 31421 ft 561 kts 22°
2026-04-12 01:33 28.01747 129.31883 31598 ft 560 kts 22°
2026-04-12 01:33 28.05165 129.33999 31787 ft 560 kts 22°
2026-04-12 01:34 28.08586 129.36118 31976 ft 560 kts 22°
2026-04-12 01:34 28.11998 129.38233 32183 ft 559 kts 22°
2026-04-12 01:34 28.15406 129.40347 32388 ft 558 kts 22°
2026-04-12 01:34 28.18814 129.42464 32613 ft 558 kts 22°
2026-04-12 01:35 28.22212 129.44575 32787 ft 557 kts 22°
2026-04-12 01:35 28.25612 129.46689 32972 ft 557 kts 22°
2026-04-12 01:35 28.29003 129.48798 33177 ft 557 kts 22°
2026-04-12 01:35 28.32405 129.50916 33353 ft 557 kts 22°
2026-04-12 01:36 28.35798 129.53030 33580 ft 556 kts 22°
2026-04-12 01:36 28.39182 129.55141 33822 ft 555 kts 22°
2026-04-12 01:36 28.42565 129.57253 34057 ft 554 kts 22°
2026-04-12 01:36 28.45931 129.59396 34274 ft 555 kts 24°
2026-04-12 01:37 28.49225 129.61688 34516 ft 556 kts 25°
2026-04-12 01:37 28.52469 129.64078 34722 ft 555 kts 26°
2026-04-12 01:37 28.55685 129.66503 34934 ft 555 kts 26°
2026-04-12 01:38 28.62078 129.71310 35013 ft 552 kts 26°
2026-04-12 01:38 28.68510 129.76063 35025 ft 550 kts 25°
2026-04-12 01:39 28.74945 129.80779 35036 ft 550 kts 25°
2026-04-12 01:39 28.81384 129.85504 35039 ft 550 kts 25°
2026-04-12 01:40 28.87819 129.90241 35042 ft 551 kts 25°
2026-04-12 01:40 28.94260 129.94994 35039 ft 551 kts 25°
2026-04-12 01:41 29.00701 129.99754 35040 ft 552 kts 25°
2026-04-12 01:41 29.07157 130.04533 35034 ft 553 kts 25°
2026-04-12 01:42 29.13612 130.09317 35034 ft 553 kts 25°
2026-04-12 01:42 29.20069 130.14110 35040 ft 554 kts 25°
2026-04-12 01:43 29.26490 130.18885 35043 ft 554 kts 25°
2026-04-12 01:43 29.31902 130.22914 35047 ft 554 kts 25°
2026-04-12 01:44 29.38360 130.27726 35048 ft 554 kts 25°
2026-04-12 01:44 29.45878 130.33340 35045 ft 554 kts 25°
2026-04-12 01:45 29.52337 130.38172 35044 ft 555 kts 25°
2026-04-12 01:45 29.57752 130.42230 35042 ft 555 kts 25°
2026-04-12 01:46 29.64216 130.47079 35042 ft 555 kts 25°
2026-04-12 01:46 29.70674 130.51932 35043 ft 555 kts 25°
2026-04-12 01:47 29.77092 130.56762 35051 ft 555 kts 25°
2026-04-12 01:47 29.83550 130.61631 35050 ft 555 kts 25°
2026-04-12 01:48 29.90010 130.66509 35047 ft 555 kts 24°
2026-04-12 01:48 29.96467 130.71393 35038 ft 555 kts 24°
2026-04-12 01:49 30.02916 130.76276 35048 ft 554 kts 24°
2026-04-12 01:49 30.09367 130.81169 35049 ft 555 kts 24°
2026-04-12 01:50 30.15815 130.86069 35056 ft 554 kts 24°
2026-04-12 01:50 30.22257 130.90972 35054 ft 554 kts 24°
2026-04-12 01:51 30.31917 130.98340 35054 ft 554 kts 24°
2026-04-12 01:51 30.38354 131.03260 35058 ft 554 kts 24°
2026-04-12 01:52 30.44751 131.08157 35048 ft 554 kts 24°
2026-04-12 01:52 30.51181 131.13087 35053 ft 554 kts 24°
2026-04-12 01:53 30.57616 131.18030 35055 ft 554 kts 24°
2026-04-12 01:53 30.64050 131.22980 35053 ft 555 kts 24°
2026-04-12 01:54 30.70477 131.27935 35053 ft 555 kts 24°
2026-04-12 01:54 30.76917 131.32907 35053 ft 555 kts 24°
2026-04-12 01:55 30.83352 131.37884 35055 ft 556 kts 24°
2026-04-12 01:55 30.89796 131.42877 35061 ft 556 kts 24°
2026-04-12 01:56 30.96189 131.47837 35052 ft 557 kts 24°
2026-04-12 01:56 31.02640 131.52851 35053 ft 557 kts 24°
2026-04-12 01:57 31.09083 131.57868 35052 ft 557 kts 24°
2026-04-12 01:57 31.15524 131.62891 35054 ft 557 kts 23°
2026-04-12 01:58 31.21958 131.67917 35060 ft 556 kts 23°
2026-04-12 01:58 31.28387 131.72948 35053 ft 556 kts 23°
2026-04-12 01:59 31.34800 131.77975 35049 ft 555 kts 23°
2026-04-12 01:59 31.41204 131.83006 35055 ft 554 kts 23°
2026-04-12 02:00 31.47589 131.88031 35057 ft 553 kts 22°
2026-04-12 02:00 31.53966 131.93058 35054 ft 552 kts 22°
2026-04-12 02:01 31.60332 131.98084 35050 ft 551 kts 22°
2026-04-12 02:01 31.66694 132.03115 35052 ft 551 kts 22°
2026-04-12 02:02 31.73011 132.08119 35057 ft 551 kts 22°
2026-04-12 02:02 31.79364 132.13161 35061 ft 550 kts 22°
2026-04-12 02:03 31.85721 132.18212 35063 ft 553 kts 22°
2026-04-12 02:03 31.92112 132.23298 35054 ft 556 kts 22°
2026-04-12 02:04 31.98521 132.28413 35057 ft 557 kts 22°
2026-04-12 02:04 32.04936 132.33542 35057 ft 557 kts 22°
2026-04-12 02:05 32.11334 132.38728 35053 ft 561 kts 25°
2026-04-12 02:05 32.17293 132.44874 35049 ft 575 kts 34°
2026-04-12 02:06 32.22954 132.51573 35050 ft 576 kts 35°
2026-04-12 02:06 32.28604 132.58284 35051 ft 575 kts 34°
2026-04-12 02:07 32.34276 132.64926 35049 ft 574 kts 34°
2026-04-12 02:07 32.39965 132.71550 35047 ft 574 kts 34°
2026-04-12 02:08 32.45648 132.78183 35045 ft 574 kts 34°
2026-04-12 02:08 32.51327 132.84832 35052 ft 574 kts 34°
2026-04-12 02:09 32.56999 132.91491 35052 ft 574 kts 34°
2026-04-12 02:09 32.62631 132.98115 35050 ft 574 kts 34°
2026-04-12 02:10 32.68262 133.04761 35026 ft 558 kts 34°
2026-04-12 02:10 32.70963 133.07974 35023 ft 543 kts 33°
2026-04-12 02:10 32.73524 133.11015 34829 ft 532 kts 33°
2026-04-12 02:11 32.76131 133.14097 34501 ft 525 kts 33°
2026-04-12 02:11 32.78708 133.17135 34099 ft 520 kts 33°
2026-04-12 02:11 32.81276 133.20158 33547 ft 518 kts 33°
2026-04-12 02:11 32.83828 133.23167 33023 ft 515 kts 33°
2026-04-12 02:12 32.86358 133.26162 32579 ft 511 kts 34°
2026-04-12 02:12 32.88861 133.29136 32170 ft 506 kts 34°
2026-04-12 02:12 32.91336 133.32079 31772 ft 501 kts 34°
2026-04-12 02:12 32.93789 133.34995 31344 ft 497 kts 34°
2026-04-12 02:13 32.96227 133.37892 30906 ft 493 kts 35°
2026-04-12 02:13 32.98646 133.40770 30484 ft 490 kts 35°
2026-04-12 02:13 33.01045 133.43630 30064 ft 486 kts 36°
2026-04-12 02:13 33.03361 133.46576 29605 ft 487 kts 41°
2026-04-12 02:14 33.05435 133.49779 29188 ft 489 kts 47°
2026-04-12 02:14 33.07370 133.53090 28765 ft 485 kts 48°
2026-04-12 02:14 33.09267 133.56398 28328 ft 481 kts 48°
2026-04-12 02:14 33.11148 133.59677 27899 ft 477 kts 48°
2026-04-12 02:15 33.13021 133.62922 27492 ft 473 kts 48°
2026-04-12 02:15 33.14884 133.66125 27119 ft 468 kts 48°
2026-04-12 02:15 33.16739 133.69302 26750 ft 463 kts 48°
2026-04-12 02:15 33.18573 133.72439 26379 ft 459 kts 48°
2026-04-12 02:16 33.20394 133.75553 26006 ft 455 kts 48°
2026-04-12 02:16 33.22196 133.78639 25625 ft 451 kts 49°
2026-04-12 02:16 33.23980 133.81697 25281 ft 447 kts 49°
2026-04-12 02:16 33.25745 133.84727 24951 ft 442 kts 49°
2026-04-12 02:17 33.27492 133.87727 24626 ft 438 kts 49°
2026-04-12 02:17 33.29223 133.90702 24307 ft 433 kts 49°
2026-04-12 02:17 33.30931 133.93643 23989 ft 429 kts 49°
2026-04-12 02:17 33.32619 133.96548 23617 ft 420 kts 50°
2026-04-12 02:18 33.34276 133.99402 22950 ft 418 kts 50°
2026-04-12 02:18 33.35923 134.02237 22309 ft 412 kts 50°
2026-04-12 02:18 33.37542 134.05026 21686 ft 405 kts 51°
2026-04-12 02:18 33.39116 134.07742 21095 ft 401 kts 51°
2026-04-12 02:19 33.40692 134.10462 20525 ft 394 kts 52°
2026-04-12 02:19 33.42260 134.13169 19978 ft 388 kts 52°
2026-04-12 02:19 33.43785 134.15807 19438 ft 382 kts 53°
2026-04-12 02:19 33.45269 134.18374 18878 ft 378 kts 53°
2026-04-12 02:20 33.46756 134.20946 18326 ft 374 kts 53°
2026-04-12 02:20 33.48223 134.23496 17666 ft 371 kts 54°
2026-04-12 02:20 33.49689 134.26052 17180 ft 372 kts 54°
2026-04-12 02:20 33.51139 134.28588 16874 ft 363 kts 54°
2026-04-12 02:21 33.52552 134.31060 16261 ft 358 kts 54°
2026-04-12 02:21 33.53958 134.33516 15511 ft 358 kts 53°
2026-04-12 02:21 33.55368 134.35973 14826 ft 356 kts 53°
2026-04-12 02:21 33.56762 134.38416 14226 ft 353 kts 53°
2026-04-12 02:22 33.58142 134.40837 13611 ft 350 kts 53°
2026-04-12 02:22 33.59508 134.43232 13001 ft 346 kts 53°
2026-04-12 02:22 33.60890 134.45572 12454 ft 339 kts 48°
2026-04-12 02:22 33.62515 134.47550 12117 ft 331 kts 36°
2026-04-12 02:23 33.64324 134.49249 11792 ft 331 kts 34°
2026-04-12 02:23 33.66150 134.50944 11458 ft 332 kts 35°
2026-04-12 02:23 33.67954 134.52642 11132 ft 328 kts 35°
2026-04-12 02:23 33.69686 134.54293 10796 ft 307 kts 35°
2026-04-12 02:24 33.71299 134.55835 10466 ft 287 kts 35°
2026-04-12 02:24 33.72852 134.57237 10110 ft 271 kts 25°
2026-04-12 02:24 33.74577 134.58015 9836 ft 264 kts 13°
2026-04-12 02:24 33.76340 134.58625 9439 ft 263 kts 12°
2026-04-12 02:25 33.78098 134.59226 9083 ft 262 kts 12°
2026-04-12 02:25 33.79849 134.59826 8765 ft 261 kts 12°
2026-04-12 02:25 33.81591 134.60418 8428 ft 260 kts 12°
2026-04-12 02:25 33.83323 134.61019 8083 ft 259 kts 13°
2026-04-12 02:26 33.85045 134.61614 7766 ft 257 kts 13°
2026-04-12 02:26 33.86757 134.62201 7418 ft 255 kts 13°
2026-04-12 02:26 33.88459 134.62791 7113 ft 253 kts 13°
2026-04-12 02:26 33.90100 134.63362 7049 ft 246 kts 13°
2026-04-12 02:27 33.91743 134.63935 7020 ft 247 kts 13°
2026-04-12 02:27 33.93422 134.64515 7021 ft 255 kts 13°
2026-04-12 02:27 33.95130 134.65104 7007 ft 255 kts 13°
2026-04-12 02:27 33.96830 134.65695 7011 ft 253 kts 13°
2026-04-12 02:28 33.98519 134.66282 7005 ft 253 kts 13°
2026-04-12 02:28 34.00199 134.66868 7003 ft 250 kts 13°
2026-04-12 02:28 34.01865 134.67448 6998 ft 248 kts 13°
2026-04-12 02:28 34.03523 134.68026 7001 ft 248 kts 13°
2026-04-12 02:29 34.05181 134.68603 7006 ft 248 kts 13°
2026-04-12 02:29 34.06844 134.69183 7013 ft 250 kts 12°
2026-04-12 02:29 34.08519 134.69760 7012 ft 251 kts 13°
2026-04-12 02:29 34.10205 134.70347 7014 ft 253 kts 13°
2026-04-12 02:30 34.11900 134.70939 7013 ft 254 kts 13°
2026-04-12 02:30 34.13601 134.71541 7008 ft 254 kts 15°
2026-04-12 02:30 34.15116 134.72595 6994 ft 256 kts 43°
2026-04-12 02:30 34.15940 134.73936 6816 ft 258 kts 58°
2026-04-12 02:31 34.16792 134.75841 6512 ft 257 kts 58°
2026-04-12 02:31 34.17638 134.77739 6135 ft 257 kts 58°
2026-04-12 02:31 34.18485 134.79632 5761 ft 256 kts 58°
2026-04-12 02:31 34.19332 134.81520 5375 ft 255 kts 58°
2026-04-12 02:32 34.20162 134.83369 5259 ft 243 kts 58°
2026-04-12 02:32 34.20949 134.85121 5217 ft 232 kts 58°
2026-04-12 02:32 34.21713 134.86813 4991 ft 227 kts 58°
2026-04-12 02:32 34.22460 134.88465 4765 ft 222 kts 58°
2026-04-12 02:33 34.23199 134.90100 4556 ft 221 kts 58°
2026-04-12 02:33 34.23932 134.91724 4324 ft 219 kts 58°
2026-04-12 02:33 34.24660 134.93336 4116 ft 218 kts 58°
2026-04-12 02:33 34.25433 134.94880 3916 ft 211 kts 49°
2026-04-12 02:34 34.26315 134.96193 3794 ft 198 kts 47°
2026-04-12 02:34 34.27180 134.97431 3592 ft 188 kts 47°
2026-04-12 02:34 34.28022 134.98644 3453 ft 189 kts 47°
2026-04-12 02:34 34.28859 134.99862 3288 ft 188 kts 47°
2026-04-12 02:35 34.29686 135.01074 3133 ft 186 kts 47°
2026-04-12 02:35 34.30501 135.02275 2964 ft 184 kts 48°
2026-04-12 02:35 34.31306 135.03464 2823 ft 182 kts 48°
2026-04-12 02:35 34.32103 135.04642 2674 ft 180 kts 49°
2026-04-12 02:36 34.32637 135.05433 2567 ft 180 kts 49°
2026-04-12 02:36 34.33285 135.06726 2343 ft 184 kts 72°
2026-04-12 02:36 34.33582 135.08218 2167 ft 183 kts 70°
2026-04-12 02:36 34.33904 135.09653 1954 ft 173 kts 71°
2026-04-12 02:37 34.34203 135.11010 1720 ft 160 kts 71°
2026-04-12 02:37 34.34705 135.12171 1644 ft 156 kts 54°
2026-04-12 02:37 34.35306 135.13276 1604 ft 159 kts 54°
2026-04-12 02:37 34.35966 135.14353 1610 ft 159 kts 50°
2026-04-12 02:38 34.36661 135.15401 1606 ft 160 kts 50°
2026-04-12 02:38 34.37280 135.16320 1411 ft 163 kts 50°
2026-04-12 02:38 34.37973 135.17348 1187 ft 152 kts 51°
2026-04-12 02:38 34.38607 135.18290 1012 ft 139 kts 50°
2026-04-12 02:39 34.39219 135.19197 820 ft 139 kts 49°
2026-04-12 02:39 34.39830 135.20104 637 ft 140 kts 48°
2026-04-12 02:39 34.40456 135.21027 426 ft 143 kts 49°
2026-04-12 02:39 34.41079 135.21959 249 ft 140 kts 48°
2026-04-12 02:40 34.41689 135.22853 88 ft 134 kts 48°
2026-04-12 02:40 34.42234 135.23663 18 ft 105 kts 52°
2026-04-12 02:40 34.42575 135.24176 18 ft 49 kts 53°
2026-04-12 02:40 34.42734 135.24372 18 ft 31 kts 30°
2026-04-12 02:41 34.42851 135.24436 18 ft 0 kts 20°
2026-04-12 02:41 34.42858 135.24439 18 ft 4 kts 17°
2026-04-12 02:42 34.42904 135.24458 19 ft 10 kts 15°
2026-04-12 02:42 34.42953 135.24416 27 ft 10 kts 275°
2026-04-12 02:42 34.42907 135.24321 26 ft 16 kts 231°
2026-04-12 02:43 34.42741 135.24072 25 ft 19 kts 231°
2026-04-12 02:43 34.42665 135.23961 24 ft 17 kts 231°
2026-04-12 02:43 34.42591 135.23851 26 ft 17 kts 230°
2026-04-12 02:43 34.42517 135.23741 27 ft 16 kts 231°
2026-04-12 02:44 34.42528 135.23637 27 ft 15 kts 322°
2026-04-12 02:44 34.42607 135.23562 25 ft 15 kts 322°
2026-04-12 02:44 34.42686 135.23486 25 ft 15 kts 321°
2026-04-12 02:44 34.42764 135.23408 26 ft 15 kts 321°
2026-04-12 02:45 34.42844 135.23331 27 ft 15 kts 321°
2026-04-12 02:45 34.42923 135.23255 26 ft 15 kts 321°
2026-04-12 02:45 34.43001 135.23178 27 ft 15 kts 321°
2026-04-12 02:45 34.43080 135.23099 27 ft 15 kts 321°
2026-04-12 02:46 34.43160 135.23022 31 ft 15 kts 321°
2026-04-12 02:46 34.43240 135.22945 33 ft 15 kts 321°
2026-04-12 02:46 34.43320 135.22866 33 ft 15 kts 321°
2026-04-12 02:46 34.43381 135.22785 33 ft 11 kts 274°
2026-04-12 02:47 34.43370 135.22697 33 ft 11 kts 290°
2026-04-12 02:47 34.43425 135.22637 33 ft 9 kts 321°
2026-04-12 02:47 34.43471 135.22593 33 ft 7 kts 321°
2026-04-12 02:47 34.43463 135.22539 32 ft 7 kts 228°
2026-04-12 02:48 34.43437 135.22504 33 ft 1 kts 229°
2026-04-12 02:48 34.43436 135.22503 33 ft 0 kts 229°